Regional Weather Roundup
Issued by NWS Bismarck, ND

Home | Current Version | Previous Version | Text Only | Print | Product List | Glossary On
Versions: 1 2 3 4 5 6 7 8 9 10 11 12 13 14 15 16 17 18 19 20 21 22 23 24 25 26 27 28 29 30 31 32 33 34 35 36 37 38 39 40 41 42 43 44 45 46 47 48 49 50
000
ASUS43 KBIS 301610
RWRBIS

NWR BROADCAST TEXT
NATIONAL WEATHER SERVICE BISMARCK ND
1100 AM CDT SAT MAY 30 2015

NOTE: "FAIR" INDICATES FEW OR NO CLOUDS BELOW 12,000 FEET WITH NO
SIGNIFICANT WEATHER AND/OR OBSTRUCTIONS TO VISIBILITY.


CITY           SKY/WX    TMP DP  RH WIND       PRES   REMARKS
WILLISTON      SUNNY     52  35  52 E17       30.30F
MINOT          MOSUNNY   46  28  49 SE9       30.38F
MINOT AFB      MOSUNNY   47  32  55 SE10      30.38F
BISMARCK       SUNNY     47  29  49 E9G17     30.39F
DICKINSON      PTSUNNY   52  36  54 SE18      30.28F
GARRISON         N/A     47  30  51 SE15      30.36F
HETTINGER ARPT PTSUNNY   49  39  68 SE13      30.29F
JAMESTOWN      SUNNY     44  29  55 N15       30.39F
BEACH          FAIR      52  36  54 SE21G28   30.24F
CARRINGTON     FAIR      43  27  52 NE12G18   30.41F
CROSBY         FAIR      48  32  53 SE18      30.32F
HARVEY         FAIR      45  25  45 E10       30.41F
HAZEN          FAIR      48  32  53 E12G17    30.37F
LINTON         FAIR      46  32  57 E9        30.38F
MANDAN         FAIR      46  32  57 SE8       30.39S
OAKES            N/A     43  32  65 N12       30.39R
STANLEY        FAIR      46  34  61 SE17G24   30.35F
WATFORD CITY   FAIR      48  36  61 SE18G24   30.27F
$$

CITY           SKY/WX    TMP DP  RH WIND       PRES   REMARKS
GRAND FORKS    MOSUNNY   45  28  51 N15       30.41S
GRAND FORKS AF SUNNY     45  26  46 NE13G20   30.41S
DEVILS LAKE    SUNNY     43  23  45 E8G16     30.41S
FARGO          SUNNY     46  34  62 N10       30.38S
CANDO          FAIR      45  25  45 NE9       30.42F
CAVALIER       FAIR      41  28  60 NE9       30.43F
GRAFTON        FAIR      43  30  61 NE13      30.43F
LANGDON        FAIR      45  27  49 NE14G20   30.42S
ROLLA          FAIR      39  25  56 NE7       30.43S
WALHALLA         N/A     41  27  56 MISG      30.44S
$$

CITY           SKY/WX    TMP DP  RH WIND       PRES   REMARKS
ABERDEEN       SUNNY     47  33  58 N13G18    30.37F
MOBRIDGE       SUNNY     48  32  53 E8        30.35F
BUFFALO          N/A     53  37  54 SE21G28   30.18F
RAPID CITY     MOSUNNY   52  40  63 SE16      30.27F
GLASGOW        MOSUNNY   58  39  49 SE23      30.14F
SIDNEY         SUNNY     55  34  44 SE15G23   30.25F
WOLF POINT     CLOUDY    59  39  47 SE12G21   30.20F
GLENDIVE       MOSUNNY   55  37  50 SE16      30.21F
MILES CITY     CLOUDY    59  39  47 SE21G28   30.13F
BAKER          LGT RAIN  54  38  54 SE23G30   30.22F
$$

CITY           SKY/WX    TMP DP  RH WIND       PRES   REMARKS
BILLINGS       PTSUNNY   59  46  62 CALM      30.07F
GREAT FALLS    CLOUDY    60  51  72 NW7       30.01R
REGINA         CLOUDY    45  30  57 SE21G26   30.31F
ESTEVAN        PTSUNNY   46  30  53 SE16G22   30.34F
$$




USA.gov is the U.S. government's official web portal to all federal, state and local government web resources and services.